Weather History for Fort Smith, AR

Change the Weather History Date:

Friday, February 28, 2014

  Actual Average Record
Temperature  
Mean Temperature 39 °F 48 °F  
Max Temperature 46 °F 60 °F 80 °F (1932)
Min Temperature 32 °F 37 °F 7 °F (1890)
Degree Days  
Heating Degree Days 26 17  
Month to date heating degree days 701 582  
Since 1 July heating degree days 2945 2673  
Moisture  
Dew Point 31 °F    
Average Humidity 65    
Maximum Humidity 76    
Minimum Humidity 54    
Precipitation  
Precipitation 0.04 in 0.10 in 1.35 in (1981)
Month to date precipitation 0.98 2.76  
Year to date precipitation 1.77 5.57  
Sea Level Pressure  
Sea Level Pressure 29.91 in    
Wind  
Wind Speed 10 mph (East)    
Max Wind Speed 18 mph    
Max Gust Speed 23 mph    
Visibility 10 miles    
Events Rain    
T = Trace of Precipitation, MM = Missing Value Source: NWS Daily Summary

Daily Weather History Graph

Daily Weather History Graph

Search for Another Location

Airport:

Trip Planner

Search our weather history database for the weather conditions in past years. The results will help you decide how hot, cold, wet, or windy it might be!

Date:

Astronomy

Feb. 28, 2014 Rise Set
Actual Time 6:48 AM CST 6:12 PM CST
Civil Twilight 6:22 AM CST 6:37 PM CST
Nautical Twilight 5:53 AM CST 7:07 PM CST
Astronomical Twilight 5:23 AM CST 7:36 PM CST
Moon 6:03 AM CST (2/28) 5:49 PM CST (2/28)
Length of Visible Light 12h 14m
Length of Day
11h 23m
Waning Crescent, 1% of the Moon is Illuminated
Feb 28
Waning Crescent
Mar 1
New
Mar 8
First Quarter
Mar 16
Full
Mar 23
Last Quarter

Hourly Weather History & Observations

Time (CST) Temp. Windchill Dew Point Humidity Pressure Visibility Wind Dir Wind Speed Gust Speed Precip Events Conditions
12:53 AM 34.0 °F 29.8 °F 21.9 °F 61% 29.93 in 10.0 mi NE 4.6 mph - N/A   Clear
1:53 AM 33.1 °F 26.9 °F 23.0 °F 66% 29.92 in 10.0 mi ENE 6.9 mph - N/A   Clear
2:53 AM 32.0 °F 24.8 °F 23.0 °F 69% 29.91 in 10.0 mi ENE 8.1 mph - N/A   Clear
3:53 AM 34.0 °F 27.2 °F 24.1 °F 67% 29.89 in 10.0 mi ENE 8.1 mph - N/A   Clear
4:53 AM 34.0 °F 25.5 °F 23.0 °F 64% 29.87 in 10.0 mi East 11.5 mph - N/A   Clear
5:53 AM 34.0 °F 26.6 °F 23.0 °F 64% 29.90 in 10.0 mi ENE 9.2 mph - N/A   Clear
6:53 AM 35.1 °F 27.4 °F 24.1 °F 64% 29.89 in 10.0 mi ENE 10.4 mph - N/A   Clear
7:53 AM 37.0 °F 29.8 °F 23.0 °F 57% 29.89 in 10.0 mi East 10.4 mph - N/A   Scattered Clouds
8:53 AM 37.9 °F 30.5 °F 28.0 °F 68% 29.90 in 10.0 mi ENE 11.5 mph - 0.00 in   Scattered Clouds
9:53 AM 39.0 °F 32.3 °F 30.9 °F 73% 29.92 in 9.0 mi East 10.4 mph - 0.01 in Rain Light Rain
10:53 AM 39.9 °F 32.1 °F 32.0 °F 73% 29.89 in 10.0 mi East 13.8 mph - 0.02 in   Overcast
11:53 AM 42.1 °F 35.2 °F 33.1 °F 70% 29.86 in 10.0 mi East 12.7 mph 23.0 mph 0.01 in   Overcast
12:53 PM 44.1 °F 37.7 °F 33.1 °F 65% 29.84 in 10.0 mi ESE 12.7 mph 21.9 mph N/A   Overcast
1:41 PM 46.4 °F 41.1 °F 33.8 °F 62% 29.82 in 10.0 mi ESE 11.5 mph - N/A   Overcast
1:53 PM 46.0 °F 40.6 °F 33.1 °F 61% 29.83 in 10.0 mi ESE 11.5 mph 19.6 mph N/A   Overcast
2:53 PM 44.1 °F 37.7 °F 35.1 °F 71% 29.85 in 10.0 mi ENE 12.7 mph - N/A   Overcast
3:53 PM 44.1 °F 38.1 °F 35.1 °F 71% 29.85 in 10.0 mi ENE 11.5 mph - N/A   Overcast
4:53 PM 46.0 °F 41.4 °F 37.0 °F 71% 29.88 in 10.0 mi ESE 9.2 mph - N/A   Overcast
5:53 PM 45.0 °F 38.9 °F 37.0 °F 74% 29.89 in 10.0 mi ESE 12.7 mph - N/A   Overcast
6:53 PM 45.0 °F 40.6 °F 37.9 °F 76% 29.91 in 10.0 mi East 8.1 mph - N/A   Overcast
7:53 PM 45.0 °F 40.6 °F 37.0 °F 74% 29.94 in 10.0 mi East 8.1 mph - N/A   Overcast
8:53 PM 44.1 °F 39.0 °F 37.0 °F 76% 29.96 in 10.0 mi East 9.2 mph - N/A   Overcast
9:53 PM 44.1 °F 39.5 °F 37.0 °F 76% 29.99 in 10.0 mi ENE 8.1 mph - N/A   Overcast
10:26 PM 44.6 °F 39.7 °F 37.4 °F 76% 29.99 in 10.0 mi ENE 9.2 mph - N/A   Overcast
10:53 PM 44.1 °F 39.0 °F 37.0 °F 76% 30.01 in 10.0 mi ENE 9.2 mph - N/A   Overcast
11:53 PM 44.1 °F 39.5 °F 37.9 °F 79% 30.02 in 10.0 mi ENE 8.1 mph - N/A   Overcast